Wind_Speed
29 29 25 25 24 21 20 20 19 20 20 20 19 19 18 16 14 13 16 20 23 25 25 27 29 31 31 30 28 27 28 30 30 29 29 28 28 26 26 25 25 25 25
30 28 25 24 23 21 20 21 21 22 21 21 20 19 18 16 15 13 12 14 16 15 18 19 19 16 20 24 27 27 27 28 30 32 31 30 30 29 28 27 26 26 25
30 27 26 23 21 21 22 22 21 20 20 20 20 18 16 15 13 12 11 11 12 11 12 14 17 15 16 20 26 31 32 21 16 33 36 36 34 32 31 29 28 27 27
31 26 25 22 21 21 21 20 20 19 19 19 17 16 14 13 10 11 12 14 13 14 14 14 12 10 12 14 24 25 20 20 31 16 34 33 38 38 35 29 27 27 28
30 24 22 21 21 20 20 18 17 17 17 18 18 15 14 13 9 10 10 13 13 13 15 16 14 7 13 19 23 21 18 16 30 15 24 12 26 31 36 31 29 26 27
27 22 21 20 20 19 18 16 16 15 15 17 16 15 11 10 8 9 14 15 14 9 11 11 14 14 16 18 21 25 26 25 29 33 21 14 18 12 12 12 17 22 26
23 22 21 19 18 17 16 16 16 16 15 16 15 12 12 13 12 11 13 15 18 18 15 17 15 11 11 16 19 21 21 19 22 25 22 27 31 21 20 19 22 31 31
20 19 19 19 16 16 15 14 15 16 15 13 13 12 8 7 16 14 15 16 11 12 16 19 21 22 19 21 18 16 19 20 24 24 24 25 27 25 23 29 33 32 33
17 18 18 18 18 15 13 12 14 15 14 14 12 11 8 8 12 16 12 16 19 16 13 13 20 20 17 17 20 23 24 23 21 22 24 27 26 26 27 29 31 34 35
16 17 18 17 15 14 14 13 13 14 13 13 12 12 11 10 11 13 10 14 16 20 21 22 23 21 21 20 18 18 20 20 21 21 22 23 23 25 25 27 29 29 29
15 16 15 16 15 14 14 13 13 13 11 11 11 12 12 11 10 10 18 16 12 14 16 19 24 22 22 18 15 20 19 19 19 22 22 23 22 22 23 24 25 26 26
15 15 14 16 15 14 13 13 13 12 11 11 12 12 12 12 11 11 14 17 14 15 13 15 19 21 27 30 29 30 25 22 19 16 18 20 20 19 19 20 21 22 23
12 16 17 15 15 14 14 13 10 11 11 11 13 13 13 13 13 14 14 14 12 16 13 17 17 18 22 27 30 31 32 25 21 17 16 17 18 18 18 19 20 22 23
12 14 14 15 15 15 14 13 11 10 10 11 13 13 13 13 13 12 13 12 8 10 15 18 20 27 26 25 25 28 29 26 27 26 21 18 17 18 20 22 24 24 26
16 17 17 14 14 15 16 14 12 11 10 9 10 10 10 10 10 11 12 15 18 16 11 9 16 20 24 25 27 31 31 27 29 30 24 19 20 19 20 23 25 27 29
17 16 16 15 14 15 15 14 10 10 10 11 9 8 9 11 10 10 15 18 17 22 28 23 18 24 25 27 29 29 30 27 25 26 26 21 21 21 23 24 26 26 26
18 18 18 15 13 14 13 12 11 11 9 8 9 11 11 12 11 15 18 17 18 25 28 24 24 28 30 32 30 30 29 25 22 25 24 25 24 24 27 29 29 28 26
17 18 17 15 13 12 11 11 12 12 9 8 9 11 13 14 17 18 20 20 27 29 32 32 33 31 29 29 28 26 25 23 26 30 28 25 26 26 26 27 26 25 24
17 17 17 15 13 11 10 9 10 9 8 8 10 13 14 16 17 18 19 22 28 33 30 32 33 29 26 27 27 24 26 28 29 31 30 28 29 27 25 24 23 22 22
17 17 16 14 12 10 9 9 9 8 7 8 11 15 19 20 24 25 23 25 36 31 32 34 33 29 26 22 23 23 23 28 30 28 28 26 24 23 21 20 18 17 18
19 18 16 14 11 10 10 10 9 7 7 9 14 18 21 22 23 25 29 29 35 32 34 34 32 28 23 22 22 25 25 22 21 20 20 18 20 18 18 17 15 14 13
20 19 17 15 11 10 9 10 7 7 8 12 17 20 22 25 25 26 27 31 32 36 37 35 30 25 21 22 24 22 21 18 16 17 15 14 17 16 16 15 14 13 12
22 19 15 13 12 10 9 9 8 6 9 14 18 23 24 25 28 30 32 31 32 34 35 33 28 22 20 21 19 16 17 16 16 20 20 15 18 17 17 15 14 13 13
22 19 13 11 9 9 8 9 7 7 11 16 22 26 29 29 32 32 34 34 36 34 29 28 26 23 20 18 16 14 14 16 18 17 20 16 17 16 16 16 16 15 15
22 18 12 10 8 9 8 6 6 13 15 21 25 29 30 30 30 32 33 34 31 25 22 23 20 15 13 14 17 14 13 19 14 11 16 18 17 13 13 13 13 15 13
21 16 11 10 8 6 6 7 12 15 18 26 29 30 28 26 25 27 29 30 23 19 17 17 15 12 12 15 15 14 14 13 15 14 17 17 13 13 7 12 15 15 15
Wind_Direction
329 328 327 325 325 326 327 326 329 328 333 327 328 328 326 322 312 291 278 274 275 277 279 276 280 275 269 261 251 252 253 255 255 253 251 248 244 241 238 237 237 235 236
329 328 325 325 326 328 333 333 334 333 331 327 326 324 324 319 313 306 291 279 282 278 271 279 287 281 266 253 243 245 248 252 254 252 246 242 239 236 236 236 236 237 237
327 324 323 325 329 337 339 337 332 330 325 324 324 324 320 318 312 309 303 297 298 300 296 298 287 277 282 266 244 240 241 240 232 243 239 238 232 232 233 234 235 237 238
322 324 321 329 335 340 335 331 328 326 326 321 324 323 323 318 323 309 301 297 294 297 305 302 304 309 293 263 248 244 213 182 199 91 190 205 226 234 229 227 233 237 240
317 321 325 334 336 335 330 327 326 325 321 320 323 331 326 319 325 312 307 298 297 304 302 297 302 307 284 258 265 282 296 208 205 278 285 154 203 238 237 228 232 238 245
316 324 330 334 335 330 324 325 323 326 323 322 327 327 314 316 328 336 334 317 309 307 312 304 281 271 252 264 271 274 271 259 277 264 292 308 270 252 207 233 250 256 257
320 329 329 333 333 325 327 331 328 327 330 328 327 317 319 330 321 351 342 340 331 323 313 317 313 296 272 268 267 264 273 269 292 284 279 279 281 291 283 287 257 260 260
319 327 327 332 332 330 335 332 327 329 332 335 326 315 308 275 300 323 332 325 332 339 318 322 324 317 314 316 306 296 285 288 288 278 291 294 288 280 266 266 257 256 257
324 327 330 333 333 338 330 328 326 326 331 334 329 314 290 265 261 292 317 323 324 327 341 337 330 319 314 308 306 305 304 298 293 283 277 273 274 274 270 267 262 261 262
330 329 331 336 332 332 331 330 327 326 331 329 329 327 318 312 268 251 276 293 316 324 332 330 327 319 323 326 322 313 306 306 298 291 284 280 275 271 270 269 269 266 264
336 331 331 329 335 336 328 331 330 325 328 326 330 331 327 323 311 266 252 265 299 303 304 320 316 319 320 322 331 322 325 319 306 293 289 286 283 279 275 272 270 270 269
334 333 333 335 337 335 334 337 327 324 323 324 323 323 318 315 305 288 273 270 266 270 285 318 317 325 326 328 335 334 340 328 318 304 287 287 286 281 275 271 270 270 271
331 336 340 341 336 338 332 332 327 319 322 322 321 319 320 322 317 301 291 279 267 257 271 284 302 307 307 314 320 325 330 331 323 306 297 292 289 285 281 277 272 271 272
343 345 343 340 335 330 329 330 326 322 319 324 324 321 323 331 331 331 327 335 340 266 271 280 283 301 315 318 317 316 315 322 317 313 320 302 287 285 283 281 278 276 275
346 347 345 337 330 329 329 332 328 322 322 322 321 328 346 342 347 356 9 7 355 351 351 307 297 301 306 311 313 314 311 313 315 310 307 298 293 286 280 276 276 278 276
343 342 338 333 334 329 324 327 324 321 323 331 340 347 350 353 1 358 356 351 340 331 331 331 310 307 308 304 304 305 306 309 309 306 307 302 298 303 295 289 286 283 270
339 338 335 333 334 327 322 321 320 323 328 331 344 345 344 347 350 344 343 336 339 337 331 329 324 315 302 298 298 298 304 309 308 315 317 314 312 305 299 294 291 286 278
335 334 333 329 334 329 320 317 318 327 332 342 333 338 327 324 334 334 328 324 324 330 325 322 318 318 306 303 304 304 305 305 308 309 308 303 307 308 305 300 294 286 278
332 332 334 329 334 326 316 314 306 313 321 322 332 331 334 327 320 322 321 321 322 316 321 320 319 319 310 309 304 305 303 300 303 309 305 305 307 306 303 301 294 289 286
330 335 334 328 331 322 316 305 298 299 305 320 327 332 331 326 317 317 317 327 332 325 323 319 320 318 310 306 306 306 302 302 303 297 296 302 303 298 302 302 299 292 288
331 336 338 328 329 326 316 303 293 310 315 328 327 324 324 319 316 305 311 317 326 324 320 318 320 314 308 303 300 300 305 309 309 306 307 310 304 308 305 303 302 301 303
333 333 329 324 332 324 308 297 304 306 318 322 319 318 321 315 314 318 313 323 325 324 319 318 319 315 312 307 304 306 309 316 316 317 323 314 312 315 315 311 307 305 303
330 325 321 316 323 325 305 295 298 299 310 315 316 322 318 312 324 319 320 324 321 317 316 317 317 314 312 309 312 312 308 314 320 319 317 324 309 311 309 310 312 315 313
323 318 316 309 311 303 290 285 279 299 315 317 320 323 323 322 317 322 318 320 321 320 317 315 312 307 310 313 317 320 315 320 325 322 325 341 329 327 306 311 311 312 313
316 314 311 309 303 299 298 286 311 315 323 322 328 326 325 322 320 318 316 318 321 323 326 324 324 312 312 319 319 313 308 323 332 335 327 340 334 2 341 338 335 332 326
312 310 313 306 305 311 302 298 320 317 328 327 328 330 328 322 315 317 321 325 327 329 330 332 337 336 312 314 321 323 328 333 333 336 333 345 346 346 23 3 355 350 345
Height
3172 3170 3167 3164 3162 3159 3156 3152 3149 3145 3143 3140 3138 3135 3133 3130 3128 3126 3124 3122 3122 3122 3122 3121 3120 3121 3122 3122 3125 3127 3128 3129 3130 3132 3134 3135 3137 3138 3140 3142 3144 3147 3148
3169 3167 3164 3161 3158 3155 3152 3148 3145 3142 3139 3136 3134 3132 3129 3127 3125 3123 3122 3120 3119 3118 3117 3116 3116 3115 3113 3115 3117 3119 3122 3123 3124 3124 3125 3127 3129 3131 3134 3136 3138 3141 3142
3166 3164 3160 3158 3154 3151 3148 3145 3142 3139 3137 3134 3132 3129 3127 3125 3123 3121 3119 3117 3116 3115 3114 3113 3111 3111 3111 3110 3112 3112 3114 3119 3117 3113 3113 3117 3120 3123 3126 3128 3132 3134 3136
3164 3162 3158 3154 3151 3147 3145 3143 3140 3138 3135 3132 3130 3127 3124 3122 3120 3118 3116 3114 3113 3112 3111 3109 3109 3108 3107 3108 3110 3110 3108 3101 3110 3091 3097 3103 3111 3115 3117 3120 3124 3127 3130
3160 3159 3154 3150 3148 3145 3143 3141 3138 3136 3132 3130 3127 3125 3122 3119 3118 3115 3113 3111 3111 3110 3109 3107 3106 3107 3106 3105 3105 3105 3103 3097 3096 3100 3093 3093 3095 3104 3110 3112 3116 3119 3122
3157 3154 3150 3148 3145 3143 3141 3138 3136 3134 3132 3128 3125 3123 3122 3118 3116 3114 3111 3107 3107 3107 3106 3105 3104 3104 3105 3103 3104 3102 3103 3103 3099 3092 3093 3088 3094 3095 3095 3101 3107 3112 3115
3153 3150 3146 3146 3144 3141 3138 3136 3133 3132 3130 3127 3124 3122 3119 3116 3114 3113 3111 3108 3103 3101 3101 3100 3099 3099 3100 3099 3099 3098 3098 3096 3095 3093 3091 3088 3091 3092 3095 3098 3102 3105 3107
3150 3147 3144 3142 3141 3138 3136 3133 3130 3128 3127 3126 3123 3120 3118 3117 3114 3112 3110 3106 3105 3102 3098 3097 3095 3093 3094 3094 3094 3093 3091 3089 3087 3083 3083 3083 3085 3087 3090 3093 3096 3097 3098
3148 3144 3142 3140 3137 3135 3132 3130 3129 3126 3124 3123 3121 3119 3115 3114 3113 3112 3109 3104 3101 3100 3100 3097 3092 3090 3090 3089 3089 3087 3086 3084 3083 3080 3080 3081 3081 3082 3082 3083 3085 3087 3087
3145 3143 3140 3138 3135 3131 3131 3129 3127 3125 3123 3121 3119 3117 3114 3112 3111 3110 3108 3103 3100 3098 3097 3096 3093 3089 3086 3086 3084 3082 3081 3079 3078 3076 3076 3076 3076 3076 3075 3075 3076 3076 3077
3143 3141 3137 3134 3132 3131 3129 3126 3124 3123 3121 3119 3117 3115 3113 3111 3110 3109 3106 3104 3101 3098 3096 3095 3090 3086 3083 3082 3083 3078 3076 3075 3072 3070 3069 3070 3070 3070 3069 3068 3068 3068 3068
3139 3138 3135 3133 3131 3128 3125 3124 3121 3120 3118 3117 3115 3114 3112 3110 3108 3106 3104 3103 3102 3097 3095 3092 3087 3084 3080 3077 3075 3074 3074 3071 3068 3067 3065 3064 3063 3063 3062 3061 3061 3060 3060
3138 3134 3132 3130 3127 3125 3122 3121 3120 3117 3117 3115 3113 3112 3110 3108 3105 3103 3101 3099 3098 3095 3093 3088 3086 3084 3082 3078 3076 3072 3070 3067 3065 3064 3063 3060 3059 3058 3056 3055 3055 3055 3054
3135 3132 3129 3126 3123 3122 3120 3118 3118 3116 3114 3113 3111 3109 3107 3104 3102 3100 3098 3097 3096 3095 3092 3089 3086 3081 3079 3077 3073 3069 3066 3064 3060 3058 3057 3056 3054 3052 3050 3049 3048 3047 3046
3130 3127 3124 3122 3121 3119 3117 3116 3114 3112 3112 3112 3110 3107 3105 3103 3100 3098 3096 3094 3091 3089 3090 3088 3084 3081 3076 3072 3068 3064 3061 3059 3056 3051 3051 3050 3048 3047 3045 3043 3042 3040 3039
3128 3125 3122 3120 3118 3117 3114 3113 3112 3110 3109 3108 3107 3105 3103 3101 3099 3097 3094 3092 3089 3085 3082 3080 3078 3074 3070 3067 3063 3060 3055 3053 3050 3047 3044 3042 3040 3038 3036 3034 3033 3032 3031
3127 3123 3119 3117 3116 3114 3112 3110 3109 3109 3107 3106 3105 3103 3101 3098 3097 3094 3090 3088 3085 3081 3076 3075 3072 3068 3063 3059 3056 3053 3050 3047 3044 3041 3038 3035 3033 3032 3028 3025 3023 3021 3020
3125 3122 3117 3114 3112 3111 3109 3107 3106 3105 3104 3103 3102 3100 3099 3096 3094 3091 3088 3085 3081 3077 3072 3067 3065 3060 3055 3051 3048 3045 3043 3041 3038 3036 3033 3030 3028 3024 3021 3017 3015 3013 3012
3124 3120 3114 3111 3109 3108 3107 3106 3105 3104 3104 3103 3101 3099 3096 3093 3091 3088 3084 3081 3077 3072 3067 3062 3058 3054 3049 3044 3042 3040 3037 3035 3032 3029 3026 3024 3021 3018 3014 3011 3008 3005 3003
3122 3116 3112 3109 3106 3105 3104 3104 3103 3102 3101 3100 3098 3096 3093 3090 3086 3083 3079 3076 3072 3065 3061 3056 3052 3048 3043 3040 3036 3034 3032 3029 3026 3023 3020 3017 3015 3012 3009 3005 3002 3000 2998
3117 3113 3109 3106 3103 3102 3101 3101 3100 3099 3098 3097 3096 3093 3090 3086 3083 3079 3075 3070 3065 3060 3055 3050 3046 3041 3038 3035 3032 3029 3026 3023 3020 3017 3015 3012 3009 3007 3003 3001 2998 2996 2993
3113 3108 3104 3101 3100 3099 3098 3098 3096 3096 3095 3094 3092 3090 3086 3082 3078 3074 3070 3064 3059 3053 3048 3043 3039 3035 3032 3029 3026 3023 3020 3018 3016 3013 3011 3008 3005 3002 2999 2996 2994 2991 2989
3110 3105 3101 3098 3096 3095 3095 3095 3094 3093 3093 3092 3088 3084 3081 3077 3073 3068 3063 3059 3055 3050 3043 3037 3033 3030 3027 3023 3020 3018 3016 3014 3012 3009 3006 3005 3000 2997 2994 2992 2989 2987 2985
3106 3103 3098 3096 3094 3093 3092 3092 3091 3091 3090 3087 3084 3079 3075 3071 3067 3062 3058 3053 3047 3042 3037 3031 3027 3024 3022 3019 3016 3014 3012 3011 3008 3004 3001 2999 2995 2993 2989 2987 2985 2983 2981
3102 3098 3095 3093 3091 3091 3090 3090 3090 3089 3087 3083 3078 3074 3068 3063 3059 3055 3051 3046 3041 3036 3031 3026 3022 3019 3018 3016 3013 3011 3009 3007 3005 3002 2999 2996 2992 2990 2985 2983 2981 2980 2977
3097 3094 3091 3089 3088 3089 3089 3088 3087 3085 3084 3078 3073 3068 3063 3058 3053 3050 3045 3040 3035 3031 3028 3023 3020 3017 3016 3013 3010 3008 3006 3003 3000 2999 2996 2993 2989 2987 2985 2981 2978 2976 2974